Вернуться в каталог

METEOR 2-5 DEB

АктивенPO
NORAD 35255·DEBRIS·🇷🇺 Russia

Запущен Oct 31, 1979 с Plesetsk Cosmodrome

Loading…

Ближайшие Пролёты (ближайшие 24 часа)

TLE

СвежийSource: Space-Track

Эпоха: Sep 12, 2026, 01:00 UTC

1 35255U 79095W   26255.04211310  .00004698  00000-0  12783-2 0  9992
2 35255  81.2034  13.0453 0020049 107.4116 252.9270 14.47250483687052

Отслеживайте METEOR 2-5 DEB в реальном времени с AllMySat

Download on the App Store